owner,sensor,date,latitude,longitude,vertical_datum,mass_concentration_of_oxygen_in_sea_water,qcFlag 
DISL,ioos:station:DISL:KATA:1,2017-08-01T00:00:00Z,30.2583,-88.2131,4.045,0.75,1111122 
DISL,ioos:station:DISL:KATA:1,2017-08-01T00:30:00Z,30.2583,-88.2131,4.055,0.76,1111122 
DISL,ioos:station:DISL:KATA:1,2017-08-01T01:00:00Z,30.2583,-88.2131,4.069,0.77,1111122 
DISL,ioos:station:DISL:KATA:1,2017-08-01T01:30:00Z,30.2583,-88.2131,4.089,0.81,1111122 
DISL,ioos:station:DISL:KATA:1,2017-08-01T02:00:00Z,30.2583,-88.2131,4.1,0.85,1111122 
DISL,ioos:station:DISL:KATA:1,2017-08-01T02:30:00Z,30.2583,-88.2131,4.114,0.92,1111122 
DISL,ioos:station:DISL:KATA:1,2017-08-01T03:00:00Z,30.2583,-88.2131,4.123,1.02,1111122 
DISL,ioos:station:DISL:KATA:1,2017-08-01T03:30:00Z,30.2583,-88.2131,4.128,1.07,1111122 
DISL,ioos:station:DISL:KATA:1,2017-08-01T04:00:00Z,30.2583,-88.2131,4.142,1.09,1111122 
DISL,ioos:station:DISL:KATA:1,2017-08-01T04:30:00Z,30.2583,-88.2131,4.152,1.12,1111122 
DISL,ioos:station:DISL:KATA:1,2017-08-01T05:00:00Z,30.2583,-88.2131,4.165,1.13,1111122 
DISL,ioos:station:DISL:KATA:1,2017-08-01T05:30:00Z,30.2583,-88.2131,4.173,1.14,1111122 
DISL,ioos:station:DISL:KATA:1,2017-08-01T06:00:00Z,30.2583,-88.2131,4.19,1.13,1111122 
DISL,ioos:station:DISL:KATA:1,2017-08-01T06:30:00Z,30.2583,-88.2131,4.201,1.16,1111122 
DISL,ioos:station:DISL:KATA:1,2017-08-01T07:00:00Z,30.2583,-88.2131,4.218,1.17,1111122 
DISL,ioos:station:DISL:KATA:1,2017-08-01T07:30:00Z,30.2583,-88.2131,4.236,1.2,1111122 
DISL,ioos:station:DISL:KATA:1,2017-08-01T08:00:00Z,30.2583,-88.2131,4.261,1.16,1111122 
DISL,ioos:station:DISL:KATA:1,2017-08-01T08:30:00Z,30.2583,-88.2131,4.274,1.12,1111122 
DISL,ioos:station:DISL:KATA:1,2017-08-01T09:00:00Z,30.2583,-88.2131,4.294,1.08,1111122 
DISL,ioos:station:DISL:KATA:1,2017-08-01T09:30:00Z,30.2583,-88.2131,4.312,1.09,1111122 
DISL,ioos:station:DISL:KATA:1,2017-08-01T10:00:00Z,30.2583,-88.2131,4.324,1.11,1111122 
DISL,ioos:station:DISL:KATA:1,2017-08-01T10:30:00Z,30.2583,-88.2131,4.332,1.3,1111122 
DISL,ioos:station:DISL:KATA:1,2017-08-01T11:00:00Z,30.2583,-88.2131,4.331,1.5,1111122 
DISL,ioos:station:DISL:KATA:1,2017-08-01T11:30:00Z,30.2583,-88.2131,4.323,1.66,1111122 
DISL,ioos:station:DISL:KATA:1,2017-08-01T12:00:00Z,30.2583,-88.2131,4.33,1.8,1111122 
DISL,ioos:station:DISL:KATA:1,2017-08-01T12:30:00Z,30.2583,-88.2131,4.323,1.9,1111122 
DISL,ioos:station:DISL:KATA:1,2017-08-01T13:00:00Z,30.2583,-88.2131,4.315,2.08,1111122 
DISL,ioos:station:DISL:KATA:1,2017-08-01T13:30:00Z,30.2583,-88.2131,4.318,2.11,1111122 
DISL,ioos:station:DISL:KATA:1,2017-08-01T14:00:00Z,30.2583,-88.2131,4.31,2.08,1111122 
DISL,ioos:station:DISL:KATA:1,2017-08-01T14:30:00Z,30.2583,-88.2131,4.296,2.06,1111122 
DISL,ioos:station:DISL:KATA:1,2017-08-01T15:00:00Z,30.2583,-88.2131,4.268,2.01,1111122 
DISL,ioos:station:DISL:KATA:1,2017-08-01T15:30:00Z,30.2583,-88.2131,4.241,2.08,1111122 
DISL,ioos:station:DISL:KATA:1,2017-08-01T16:00:00Z,30.2583,-88.2131,4.199,2.07,1111122 
DISL,ioos:station:DISL:KATA:1,2017-08-01T16:30:00Z,30.2583,-88.2131,4.156,2.07,1111122 
DISL,ioos:station:DISL:KATA:1,2017-08-01T17:00:00Z,30.2583,-88.2131,4.124,1.91,1111122 
DISL,ioos:station:DISL:KATA:1,2017-08-01T17:30:00Z,30.2583,-88.2131,4.091,1.97,1111122 
DISL,ioos:station:DISL:KATA:1,2017-08-01T18:00:00Z,30.2583,-88.2131,4.068,1.8,1111122 
DISL,ioos:station:DISL:KATA:1,2017-08-01T18:30:00Z,30.2583,-88.2131,4.057,2.01,1111122 
DISL,ioos:station:DISL:KATA:1,2017-08-01T19:00:00Z,30.2583,-88.2131,4.048,1.91,1111122 
DISL,ioos:station:DISL:KATA:1,2017-08-01T19:30:00Z,30.2583,-88.2131,4.048,1.91,1111122 
DISL,ioos:station:DISL:KATA:1,2017-08-01T20:00:00Z,30.2583,-88.2131,4.03,1.84,1111122 
DISL,ioos:station:DISL:KATA:1,2017-08-01T20:30:00Z,30.2583,-88.2131,4.018,1.66,1111122 
DISL,ioos:station:DISL:KATA:1,2017-08-01T21:00:00Z,30.2583,-88.2131,4.005,1.67,1111122 
DISL,ioos:station:DISL:KATA:1,2017-08-01T21:30:00Z,30.2583,-88.2131,4.0,1.76,1111122 
DISL,ioos:station:DISL:KATA:1,2017-08-01T22:00:00Z,30.2583,-88.2131,4.001,1.69,1111122 
DISL,ioos:station:DISL:KATA:1,2017-08-01T22:30:00Z,30.2583,-88.2131,4.001,1.69,1111122 
DISL,ioos:station:DISL:KATA:1,2017-08-01T23:00:00Z,30.2583,-88.2131,4.013,1.72,1111122 
DISL,ioos:station:DISL:KATA:1,2017-08-01T23:30:00Z,30.2583,-88.2131,4.013,1.72,1111122 
DISL,ioos:station:DISL:KATA:1,2017-08-02T00:00:00Z,30.2583,-88.2131,4.02,1.84,1111122 
DISL,ioos:station:DISL:KATA:1,2017-08-02T00:30:00Z,30.2583,-88.2131,4.028,1.56,1111122 
DISL,ioos:station:DISL:KATA:1,2017-08-02T01:00:00Z,30.2583,-88.2131,4.033,1.45,1111122 
DISL,ioos:station:DISL:KATA:1,2017-08-02T01:30:00Z,30.2583,-88.2131,4.034,1.27,1111122 
DISL,ioos:station:DISL:KATA:1,2017-08-02T02:00:00Z,30.2583,-88.2131,4.034,1.27,1111122 
DISL,ioos:station:DISL:KATA:1,2017-08-02T02:30:00Z,30.2583,-88.2131,4.06,1.31,1111122 
DISL,ioos:station:DISL:KATA:1,2017-08-02T03:00:00Z,30.2583,-88.2131,4.081,1.53,1111122 
DISL,ioos:station:DISL:KATA:1,2017-08-02T03:30:00Z,30.2583,-88.2131,4.103,1.6,1111122 
DISL,ioos:station:DISL:KATA:1,2017-08-02T04:00:00Z,30.2583,-88.2131,4.119,1.63,1111122 
DISL,ioos:station:DISL:KATA:1,2017-08-02T04:30:00Z,30.2583,-88.2131,4.139,1.75,1111122 
DISL,ioos:station:DISL:KATA:1,2017-08-02T05:00:00Z,30.2583,-88.2131,4.159,1.84,1111122 
DISL,ioos:station:DISL:KATA:1,2017-08-02T05:30:00Z,30.2583,-88.2131,4.18,2.16,1111122 
DISL,ioos:station:DISL:KATA:1,2017-08-02T06:00:00Z,30.2583,-88.2131,4.202,2.94,1111122 
DISL,ioos:station:DISL:KATA:1,2017-08-02T06:30:00Z,30.2583,-88.2131,4.226,2.94,1111122 
DISL,ioos:station:DISL:KATA:1,2017-08-02T07:00:00Z,30.2583,-88.2131,4.255,3.09,1111122 
DISL,ioos:station:DISL:KATA:1,2017-08-02T07:30:00Z,30.2583,-88.2131,4.282,3.11,1111122 
DISL,ioos:station:DISL:KATA:1,2017-08-02T08:00:00Z,30.2583,-88.2131,4.305,2.98,1111122 
DISL,ioos:station:DISL:KATA:1,2017-08-02T08:30:00Z,30.2583,-88.2131,4.327,2.94,1111122 
DISL,ioos:station:DISL:KATA:1,2017-08-02T09:00:00Z,30.2583,-88.2131,4.343,3.08,1111122 
DISL,ioos:station:DISL:KATA:1,2017-08-02T09:30:00Z,30.2583,-88.2131,4.352,3.06,1111122 
DISL,ioos:station:DISL:KATA:1,2017-08-02T10:00:00Z,30.2583,-88.2131,4.37,3.23,1111122 
DISL,ioos:station:DISL:KATA:1,2017-08-02T10:30:00Z,30.2583,-88.2131,4.377,3.39,1111122 
DISL,ioos:station:DISL:KATA:1,2017-08-02T11:00:00Z,30.2583,-88.2131,4.378,2.79,1111122 
DISL,ioos:station:DISL:KATA:1,2017-08-02T11:30:00Z,30.2583,-88.2131,4.375,2.82,1111122 
DISL,ioos:station:DISL:KATA:1,2017-08-02T12:00:00Z,30.2583,-88.2131,4.367,2.45,1111122 
DISL,ioos:station:DISL:KATA:1,2017-08-02T12:30:00Z,30.2583,-88.2131,4.364,2.27,1111122 
DISL,ioos:station:DISL:KATA:1,2017-08-02T13:00:00Z,30.2583,-88.2131,4.351,2.81,1111122 
DISL,ioos:station:DISL:KATA:1,2017-08-02T13:30:00Z,30.2583,-88.2131,4.342,2.84,1111122 
DISL,ioos:station:DISL:KATA:1,2017-08-02T14:00:00Z,30.2583,-88.2131,4.32,3.0,1111122 
DISL,ioos:station:DISL:KATA:1,2017-08-02T14:30:00Z,30.2583,-88.2131,4.296,2.96,1111122 
DISL,ioos:station:DISL:KATA:1,2017-08-02T15:00:00Z,30.2583,-88.2131,4.287,3.08,1111122 
DISL,ioos:station:DISL:KATA:1,2017-08-02T15:30:00Z,30.2583,-88.2131,4.262,3.0,1111122 
DISL,ioos:station:DISL:KATA:1,2017-08-02T16:00:00Z,30.2583,-88.2131,4.243,3.2,1111122 
DISL,ioos:station:DISL:KATA:1,2017-08-02T16:30:00Z,30.2583,-88.2131,4.222,2.98,1111122 
DISL,ioos:station:DISL:KATA:1,2017-08-02T17:00:00Z,30.2583,-88.2131,4.184,2.78,1111122 
DISL,ioos:station:DISL:KATA:1,2017-08-02T17:30:00Z,30.2583,-88.2131,4.154,2.8,1111122 
DISL,ioos:station:DISL:KATA:1,2017-08-02T18:00:00Z,30.2583,-88.2131,4.115,2.71,1111122 
DISL,ioos:station:DISL:KATA:1,2017-08-02T18:30:00Z,30.2583,-88.2131,4.088,3.04,1111122 
DISL,ioos:station:DISL:KATA:1,2017-08-02T19:00:00Z,30.2583,-88.2131,4.062,3.15,1111122 
DISL,ioos:station:DISL:KATA:1,2017-08-02T19:30:00Z,30.2583,-88.2131,4.035,2.69,1111122 
DISL,ioos:station:DISL:KATA:1,2017-08-02T20:00:00Z,30.2583,-88.2131,4.01,2.45,1111122 
DISL,ioos:station:DISL:KATA:1,2017-08-02T20:30:00Z,30.2583,-88.2131,4.004,2.52,1111122 
DISL,ioos:station:DISL:KATA:1,2017-08-02T21:00:00Z,30.2583,-88.2131,3.991,2.38,1111122 
DISL,ioos:station:DISL:KATA:1,2017-08-02T21:30:00Z,30.2583,-88.2131,3.976,2.39,1111122 
DISL,ioos:station:DISL:KATA:1,2017-08-02T22:00:00Z,30.2583,-88.2131,3.96,2.58,1111122 
DISL,ioos:station:DISL:KATA:1,2017-08-02T22:30:00Z,30.2583,-88.2131,3.949,2.47,1111122 
DISL,ioos:station:DISL:KATA:1,2017-08-02T23:00:00Z,30.2583,-88.2131,3.971,2.46,1111122 
DISL,ioos:station:DISL:KATA:1,2017-08-02T23:30:00Z,30.2583,-88.2131,3.979,2.56,1111122 
DISL,ioos:station:DISL:KATA:1,2017-08-03T00:00:00Z,30.2583,-88.2131,3.995,2.42,1111122 
DISL,ioos:station:DISL:KATA:1,2017-08-03T00:30:00Z,30.2583,-88.2131,4.013,2.1,1111122 
DISL,ioos:station:DISL:KATA:1,2017-08-03T01:00:00Z,30.2583,-88.2131,4.034,2.11,1111122 
DISL,ioos:station:DISL:KATA:1,2017-08-03T01:30:00Z,30.2583,-88.2131,4.054,2.11,1111122 
DISL,ioos:station:DISL:KATA:1,2017-08-03T02:00:00Z,30.2583,-88.2131,4.07,2.15,1111122 
DISL,ioos:station:DISL:KATA:1,2017-08-03T02:30:00Z,30.2583,-88.2131,4.085,2.25,1111122 
DISL,ioos:station:DISL:KATA:1,2017-08-03T03:00:00Z,30.2583,-88.2131,4.108,2.41,1111122 
DISL,ioos:station:DISL:KATA:1,2017-08-03T03:30:00Z,30.2583,-88.2131,4.118,2.1,1111122 
DISL,ioos:station:DISL:KATA:1,2017-08-03T04:00:00Z,30.2583,-88.2131,4.131,2.23,1111122 
DISL,ioos:station:DISL:KATA:1,2017-08-03T04:30:00Z,30.2583,-88.2131,4.157,2.19,1111122 
DISL,ioos:station:DISL:KATA:1,2017-08-03T05:00:00Z,30.2583,-88.2131,4.182,2.29,1111122 
DISL,ioos:station:DISL:KATA:1,2017-08-03T05:30:00Z,30.2583,-88.2131,4.206,2.4,1111122 
DISL,ioos:station:DISL:KATA:1,2017-08-03T06:00:00Z,30.2583,-88.2131,4.227,3.07,1111122 
DISL,ioos:station:DISL:KATA:1,2017-08-03T06:30:00Z,30.2583,-88.2131,4.254,3.29,1111122 
DISL,ioos:station:DISL:KATA:1,2017-08-03T07:00:00Z,30.2583,-88.2131,4.267,3.29,1111122 
DISL,ioos:station:DISL:KATA:1,2017-08-03T07:30:00Z,30.2583,-88.2131,4.276,3.48,1111122 
DISL,ioos:station:DISL:KATA:1,2017-08-03T08:00:00Z,30.2583,-88.2131,4.271,3.7,1111122 
DISL,ioos:station:DISL:KATA:1,2017-08-03T08:30:00Z,30.2583,-88.2131,4.273,4.43,1111122 
DISL,ioos:station:DISL:KATA:1,2017-08-03T09:00:00Z,30.2583,-88.2131,4.296,5.11,1111122 
DISL,ioos:station:DISL:KATA:1,2017-08-03T09:30:00Z,30.2583,-88.2131,4.322,3.33,1111122 
DISL,ioos:station:DISL:KATA:1,2017-08-03T10:00:00Z,30.2583,-88.2131,4.35,3.24,1111122 
DISL,ioos:station:DISL:KATA:1,2017-08-03T10:30:00Z,30.2583,-88.2131,4.378,2.54,1111122 
DISL,ioos:station:DISL:KATA:1,2017-08-03T11:00:00Z,30.2583,-88.2131,4.384,2.22,1111122 
DISL,ioos:station:DISL:KATA:1,2017-08-03T11:30:00Z,30.2583,-88.2131,4.386,2.38,1111122 
DISL,ioos:station:DISL:KATA:1,2017-08-03T12:00:00Z,30.2583,-88.2131,4.373,2.35,1111122 
DISL,ioos:station:DISL:KATA:1,2017-08-03T12:30:00Z,30.2583,-88.2131,4.373,2.14,1111122 
DISL,ioos:station:DISL:KATA:1,2017-08-03T13:00:00Z,30.2583,-88.2131,4.357,2.06,1111122 
DISL,ioos:station:DISL:KATA:1,2017-08-03T13:30:00Z,30.2583,-88.2131,4.367,2.02,1111122 
DISL,ioos:station:DISL:KATA:1,2017-08-03T14:00:00Z,30.2583,-88.2131,4.341,2.23,1111122 
DISL,ioos:station:DISL:KATA:1,2017-08-03T14:30:00Z,30.2583,-88.2131,4.333,3.1,1111122 
DISL,ioos:station:DISL:KATA:1,2017-08-03T15:00:00Z,30.2583,-88.2131,4.337,2.4,1111122 
DISL,ioos:station:DISL:KATA:1,2017-08-03T15:30:00Z,30.2583,-88.2131,4.322,3.09,1111122 
DISL,ioos:station:DISL:KATA:1,2017-08-03T16:00:00Z,30.2583,-88.2131,4.323,3.45,1111122 
DISL,ioos:station:DISL:KATA:1,2017-08-03T16:30:00Z,30.2583,-88.2131,4.295,2.95,1111122 
DISL,ioos:station:DISL:KATA:1,2017-08-03T17:00:00Z,30.2583,-88.2131,4.286,2.58,1111122 
DISL,ioos:station:DISL:KATA:1,2017-08-03T17:30:00Z,30.2583,-88.2131,4.243,2.6,1111122 
DISL,ioos:station:DISL:KATA:1,2017-08-03T18:00:00Z,30.2583,-88.2131,4.201,2.53,1111122 
DISL,ioos:station:DISL:KATA:1,2017-08-03T18:30:00Z,30.2583,-88.2131,4.135,1.84,1111122 
DISL,ioos:station:DISL:KATA:1,2017-08-03T19:00:00Z,30.2583,-88.2131,4.105,1.98,1111122 
DISL,ioos:station:DISL:KATA:1,2017-08-03T19:30:00Z,30.2583,-88.2131,4.072,2.64,1111122 
DISL,ioos:station:DISL:KATA:1,2017-08-03T20:00:00Z,30.2583,-88.2131,4.035,2.62,1111122 
DISL,ioos:station:DISL:KATA:1,2017-08-03T20:30:00Z,30.2583,-88.2131,4.026,3.01,1111122 
DISL,ioos:station:DISL:KATA:1,2017-08-03T21:00:00Z,30.2583,-88.2131,3.99,2.86,1111122 
DISL,ioos:station:DISL:KATA:1,2017-08-03T21:30:00Z,30.2583,-88.2131,3.952,2.94,1111122 
DISL,ioos:station:DISL:KATA:1,2017-08-03T22:00:00Z,30.2583,-88.2131,3.95,2.78,1111122 
DISL,ioos:station:DISL:KATA:1,2017-08-03T22:30:00Z,30.2583,-88.2131,3.944,2.88,1111122 
DISL,ioos:station:DISL:KATA:1,2017-08-03T23:00:00Z,30.2583,-88.2131,3.944,2.88,1111122 
DISL,ioos:station:DISL:KATA:1,2017-08-03T23:30:00Z,30.2583,-88.2131,3.977,2.93,1111122 
DISL,ioos:station:DISL:KATA:1,2017-08-04T00:00:00Z,30.2583,-88.2131,3.969,2.85,1111122 
DISL,ioos:station:DISL:KATA:1,2017-08-04T00:30:00Z,30.2583,-88.2131,3.968,2.77,1111122 
DISL,ioos:station:DISL:KATA:1,2017-08-04T01:00:00Z,30.2583,-88.2131,3.963,2.6,1111122 
DISL,ioos:station:DISL:KATA:1,2017-08-04T01:30:00Z,30.2583,-88.2131,3.957,2.59,1111122 
DISL,ioos:station:DISL:KATA:1,2017-08-04T02:00:00Z,30.2583,-88.2131,3.973,2.42,1111122 
DISL,ioos:station:DISL:KATA:1,2017-08-04T02:30:00Z,30.2583,-88.2131,3.983,2.39,1111122 
DISL,ioos:station:DISL:KATA:1,2017-08-04T03:00:00Z,30.2583,-88.2131,4.012,2.39,1111122 
DISL,ioos:station:DISL:KATA:1,2017-08-04T03:30:00Z,30.2583,-88.2131,4.053,2.3,1111122 
DISL,ioos:station:DISL:KATA:1,2017-08-04T04:00:00Z,30.2583,-88.2131,4.096,2.5,1111122 
DISL,ioos:station:DISL:KATA:1,2017-08-04T04:30:00Z,30.2583,-88.2131,4.133,2.54,1111122 
DISL,ioos:station:DISL:KATA:1,2017-08-04T05:00:00Z,30.2583,-88.2131,4.168,2.49,1111122 
DISL,ioos:station:DISL:KATA:1,2017-08-04T05:30:00Z,30.2583,-88.2131,4.205,2.54,1111122 
DISL,ioos:station:DISL:KATA:1,2017-08-04T06:00:00Z,30.2583,-88.2131,4.22,2.51,1111122 
DISL,ioos:station:DISL:KATA:1,2017-08-04T06:30:00Z,30.2583,-88.2131,4.216,2.5,1111122 
DISL,ioos:station:DISL:KATA:1,2017-08-04T07:00:00Z,30.2583,-88.2131,4.258,2.52,1111122 
DISL,ioos:station:DISL:KATA:1,2017-08-04T07:30:00Z,30.2583,-88.2131,4.258,2.54,1111122 
DISL,ioos:station:DISL:KATA:1,2017-08-04T08:00:00Z,30.2583,-88.2131,4.294,2.51,1111122 
DISL,ioos:station:DISL:KATA:1,2017-08-04T08:30:00Z,30.2583,-88.2131,4.341,2.52,1111122 
DISL,ioos:station:DISL:KATA:1,2017-08-04T09:00:00Z,30.2583,-88.2131,4.375,2.38,1111122 
DISL,ioos:station:DISL:KATA:1,2017-08-04T09:30:00Z,30.2583,-88.2131,4.379,2.33,1111122 
DISL,ioos:station:DISL:KATA:1,2017-08-04T10:00:00Z,30.2583,-88.2131,4.388,2.3,1111122 
DISL,ioos:station:DISL:KATA:1,2017-08-04T10:30:00Z,30.2583,-88.2131,4.396,2.36,1111122 
DISL,ioos:station:DISL:KATA:1,2017-08-04T11:00:00Z,30.2583,-88.2131,4.406,2.32,1111122 
DISL,ioos:station:DISL:KATA:1,2017-08-04T11:30:00Z,30.2583,-88.2131,4.43,2.45,1111122 
DISL,ioos:station:DISL:KATA:1,2017-08-04T12:00:00Z,30.2583,-88.2131,4.434,2.44,1111122 
DISL,ioos:station:DISL:KATA:1,2017-08-04T12:30:00Z,30.2583,-88.2131,4.446,2.49,1111122 
DISL,ioos:station:DISL:KATA:1,2017-08-04T13:00:00Z,30.2583,-88.2131,4.469,3.12,1111122 
DISL,ioos:station:DISL:KATA:1,2017-08-04T13:30:00Z,30.2583,-88.2131,4.44,2.96,1111122 
DISL,ioos:station:DISL:KATA:1,2017-08-04T14:00:00Z,30.2583,-88.2131,4.418,3.18,1111122 
DISL,ioos:station:DISL:KATA:1,2017-08-04T14:30:00Z,30.2583,-88.2131,4.436,3.28,1111122 
DISL,ioos:station:DISL:KATA:1,2017-08-04T15:00:00Z,30.2583,-88.2131,4.437,3.68,1111122 
DISL,ioos:station:DISL:KATA:1,2017-08-04T15:30:00Z,30.2583,-88.2131,4.43,3.28,1111122 
DISL,ioos:station:DISL:KATA:1,2017-08-04T16:00:00Z,30.2583,-88.2131,4.382,3.34,1111122 
DISL,ioos:station:DISL:KATA:1,2017-08-04T16:30:00Z,30.2583,-88.2131,4.399,3.18,1111122 
DISL,ioos:station:DISL:KATA:1,2017-08-04T17:00:00Z,30.2583,-88.2131,4.334,3.17,1111122 
DISL,ioos:station:DISL:KATA:1,2017-08-04T17:30:00Z,30.2583,-88.2131,4.287,3.19,1111122 
DISL,ioos:station:DISL:KATA:1,2017-08-04T18:00:00Z,30.2583,-88.2131,4.275,2.97,1111122 
DISL,ioos:station:DISL:KATA:1,2017-08-04T18:30:00Z,30.2583,-88.2131,4.209,3.21,1111122 
DISL,ioos:station:DISL:KATA:1,2017-08-04T19:00:00Z,30.2583,-88.2131,4.153,3.25,1111122 
DISL,ioos:station:DISL:KATA:1,2017-08-04T19:30:00Z,30.2583,-88.2131,4.112,6.41,1111122 
DISL,ioos:station:DISL:KATA:1,2017-08-04T20:00:00Z,30.2583,-88.2131,4.058,5.99,1111122 
DISL,ioos:station:DISL:KATA:1,2017-08-04T20:30:00Z,30.2583,-88.2131,4.025,6.09,1111122 
DISL,ioos:station:DISL:KATA:1,2017-08-04T21:00:00Z,30.2583,-88.2131,4.015,5.89,1111122 
DISL,ioos:station:DISL:KATA:1,2017-08-04T21:30:00Z,30.2583,-88.2131,3.987,6.71,1111122 
DISL,ioos:station:DISL:KATA:1,2017-08-04T22:00:00Z,30.2583,-88.2131,3.987,6.71,1111122 
DISL,ioos:station:DISL:KATA:1,2017-08-04T22:30:00Z,30.2583,-88.2131,4.035,6.02,1111122 
DISL,ioos:station:DISL:KATA:1,2017-08-04T23:00:00Z,30.2583,-88.2131,4.057,5.54,1111122 
DISL,ioos:station:DISL:KATA:1,2017-08-04T23:30:00Z,30.2583,-88.2131,4.131,6.13,1111122 
DISL,ioos:station:DISL:KATA:1,2017-08-05T00:00:00Z,30.2583,-88.2131,4.056,5.51,1111122 
DISL,ioos:station:DISL:KATA:1,2017-08-05T00:30:00Z,30.2583,-88.2131,4.049,5.26,1111122 
DISL,ioos:station:DISL:KATA:1,2017-08-05T01:00:00Z,30.2583,-88.2131,4.051,5.84,1111122 
DISL,ioos:station:DISL:KATA:1,2017-08-05T01:30:00Z,30.2583,-88.2131,4.022,6.67,1111122 
DISL,ioos:station:DISL:KATA:1,2017-08-05T02:00:00Z,30.2583,-88.2131,3.966,5.47,1111122 
DISL,ioos:station:DISL:KATA:1,2017-08-05T02:30:00Z,30.2583,-88.2131,3.975,6.05,1111122 
DISL,ioos:station:DISL:KATA:1,2017-08-05T03:00:00Z,30.2583,-88.2131,4.007,6.19,1111122 
DISL,ioos:station:DISL:KATA:1,2017-08-05T03:30:00Z,30.2583,-88.2131,4.035,6.15,1111122 
DISL,ioos:station:DISL:KATA:1,2017-08-05T04:00:00Z,30.2583,-88.2131,4.046,6.22,1111122 
DISL,ioos:station:DISL:KATA:1,2017-08-05T04:30:00Z,30.2583,-88.2131,4.07,6.29,1111122 
DISL,ioos:station:DISL:KATA:1,2017-08-05T05:00:00Z,30.2583,-88.2131,4.11,6.33,1111122 
DISL,ioos:station:DISL:KATA:1,2017-08-05T05:30:00Z,30.2583,-88.2131,4.144,6.3,1111122 
DISL,ioos:station:DISL:KATA:1,2017-08-05T06:00:00Z,30.2583,-88.2131,4.179,6.34,1111122 
DISL,ioos:station:DISL:KATA:1,2017-08-05T06:30:00Z,30.2583,-88.2131,4.212,6.19,1111122 
DISL,ioos:station:DISL:KATA:1,2017-08-05T07:00:00Z,30.2583,-88.2131,4.222,6.04,1111122 
DISL,ioos:station:DISL:KATA:1,2017-08-05T07:30:00Z,30.2583,-88.2131,4.235,6.08,1111122 
DISL,ioos:station:DISL:KATA:1,2017-08-05T08:00:00Z,30.2583,-88.2131,4.243,6.21,1111122 
DISL,ioos:station:DISL:KATA:1,2017-08-05T08:30:00Z,30.2583,-88.2131,4.249,6.11,1111122 
DISL,ioos:station:DISL:KATA:1,2017-08-05T09:00:00Z,30.2583,-88.2131,4.239,6.02,1111122 
DISL,ioos:station:DISL:KATA:1,2017-08-05T09:30:00Z,30.2583,-88.2131,4.25,6.16,1111122 
DISL,ioos:station:DISL:KATA:1,2017-08-05T10:00:00Z,30.2583,-88.2131,4.263,6.03,1111122 
DISL,ioos:station:DISL:KATA:1,2017-08-05T10:30:00Z,30.2583,-88.2131,4.299,5.72,1111122 
DISL,ioos:station:DISL:KATA:1,2017-08-05T11:00:00Z,30.2583,-88.2131,4.329,5.97,1111122 
DISL,ioos:station:DISL:KATA:1,2017-08-05T11:30:00Z,30.2583,-88.2131,4.351,6.05,1111122 
DISL,ioos:station:DISL:KATA:1,2017-08-05T12:00:00Z,30.2583,-88.2131,4.376,5.96,1111122 
DISL,ioos:station:DISL:KATA:1,2017-08-05T12:30:00Z,30.2583,-88.2131,4.401,6.0,1111122 
DISL,ioos:station:DISL:KATA:1,2017-08-05T13:00:00Z,30.2583,-88.2131,4.423,6.02,1111122 
DISL,ioos:station:DISL:KATA:1,2017-08-05T13:30:00Z,30.2583,-88.2131,4.438,5.99,1111122 
DISL,ioos:station:DISL:KATA:1,2017-08-05T14:00:00Z,30.2583,-88.2131,4.443,6.01,1111122 
DISL,ioos:station:DISL:KATA:1,2017-08-05T14:30:00Z,30.2583,-88.2131,4.437,5.89,1111122 
DISL,ioos:station:DISL:KATA:1,2017-08-05T15:00:00Z,30.2583,-88.2131,4.422,5.84,1111122 
DISL,ioos:station:DISL:KATA:1,2017-08-05T15:30:00Z,30.2583,-88.2131,4.403,5.76,1111122 
DISL,ioos:station:DISL:KATA:1,2017-08-05T16:00:00Z,30.2583,-88.2131,4.372,5.75,1111122 
DISL,ioos:station:DISL:KATA:1,2017-08-05T16:30:00Z,30.2583,-88.2131,4.337,5.7,1111122 
DISL,ioos:station:DISL:KATA:1,2017-08-05T17:00:00Z,30.2583,-88.2131,4.31,5.76,1111122 
DISL,ioos:station:DISL:KATA:1,2017-08-05T17:30:00Z,30.2583,-88.2131,4.294,5.77,1111122 
DISL,ioos:station:DISL:KATA:1,2017-08-05T18:00:00Z,30.2583,-88.2131,4.279,5.8,1111122 
DISL,ioos:station:DISL:KATA:1,2017-08-05T18:30:00Z,30.2583,-88.2131,4.248,5.83,1111122 
DISL,ioos:station:DISL:KATA:1,2017-08-05T19:00:00Z,30.2583,-88.2131,4.212,5.85,1111122 
DISL,ioos:station:DISL:KATA:1,2017-08-05T19:30:00Z,30.2583,-88.2131,4.17,5.83,1111122 
DISL,ioos:station:DISL:KATA:1,2017-08-05T20:00:00Z,30.2583,-88.2131,4.122,5.89,1111122 
DISL,ioos:station:DISL:KATA:1,2017-08-05T20:30:00Z,30.2583,-88.2131,4.075,6.0,1111122 
DISL,ioos:station:DISL:KATA:1,2017-08-05T21:00:00Z,30.2583,-88.2131,4.036,6.74,1111122 
DISL,ioos:station:DISL:KATA:1,2017-08-05T21:30:00Z,30.2583,-88.2131,4.0,7.17,1111122 
DISL,ioos:station:DISL:KATA:1,2017-08-05T22:00:00Z,30.2583,-88.2131,3.969,7.43,1111122 
DISL,ioos:station:DISL:KATA:1,2017-08-05T22:30:00Z,30.2583,-88.2131,3.949,7.58,1111122 
DISL,ioos:station:DISL:KATA:1,2017-08-05T23:00:00Z,30.2583,-88.2131,3.939,7.26,1111122 
DISL,ioos:station:DISL:KATA:1,2017-08-05T23:30:00Z,30.2583,-88.2131,3.925,7.58,1111122 
DISL,ioos:station:DISL:KATA:1,2017-08-06T00:00:00Z,30.2583,-88.2131,3.921,7.12,1111122 
DISL,ioos:station:DISL:KATA:1,2017-08-06T00:30:00Z,30.2583,-88.2131,3.93,6.78,1111122 
DISL,ioos:station:DISL:KATA:1,2017-08-06T01:00:00Z,30.2583,-88.2131,3.943,7.23,1111122 
DISL,ioos:station:DISL:KATA:1,2017-08-06T01:30:00Z,30.2583,-88.2131,3.959,7.31,1111122 
DISL,ioos:station:DISL:KATA:1,2017-08-06T02:00:00Z,30.2583,-88.2131,3.968,7.28,1111122 
DISL,ioos:station:DISL:KATA:1,2017-08-06T02:30:00Z,30.2583,-88.2131,3.968,6.86,1111122 
DISL,ioos:station:DISL:KATA:1,2017-08-06T03:00:00Z,30.2583,-88.2131,3.967,6.94,1111122 
DISL,ioos:station:DISL:KATA:1,2017-08-06T03:30:00Z,30.2583,-88.2131,3.978,6.79,1111122 
DISL,ioos:station:DISL:KATA:1,2017-08-06T04:00:00Z,30.2583,-88.2131,3.991,6.87,1111122 
DISL,ioos:station:DISL:KATA:1,2017-08-06T04:30:00Z,30.2583,-88.2131,4.013,5.74,1111122 
DISL,ioos:station:DISL:KATA:1,2017-08-06T05:00:00Z,30.2583,-88.2131,4.038,6.05,1111122 
DISL,ioos:station:DISL:KATA:1,2017-08-06T05:30:00Z,30.2583,-88.2131,4.069,5.71,1111122 
DISL,ioos:station:DISL:KATA:1,2017-08-06T06:00:00Z,30.2583,-88.2131,4.105,5.26,1111122 
DISL,ioos:station:DISL:KATA:1,2017-08-06T06:30:00Z,30.2583,-88.2131,4.129,5.32,1111122 
DISL,ioos:station:DISL:KATA:1,2017-08-06T07:00:00Z,30.2583,-88.2131,4.154,5.31,1111122 
DISL,ioos:station:DISL:KATA:1,2017-08-06T07:30:00Z,30.2583,-88.2131,4.154,5.31,1111122 
DISL,ioos:station:DISL:KATA:1,2017-08-06T08:00:00Z,30.2583,-88.2131,4.202,5.28,1111122 
DISL,ioos:station:DISL:KATA:1,2017-08-06T08:30:00Z,30.2583,-88.2131,4.223,5.31,1111122 
DISL,ioos:station:DISL:KATA:1,2017-08-06T09:00:00Z,30.2583,-88.2131,4.24,5.29,1111122 
DISL,ioos:station:DISL:KATA:1,2017-08-06T09:30:00Z,30.2583,-88.2131,4.273,5.28,1111122 
DISL,ioos:station:DISL:KATA:1,2017-08-06T10:00:00Z,30.2583,-88.2131,4.301,5.28,1111122 
DISL,ioos:station:DISL:KATA:1,2017-08-06T10:30:00Z,30.2583,-88.2131,4.324,5.45,1111122 
DISL,ioos:station:DISL:KATA:1,2017-08-06T11:00:00Z,30.2583,-88.2131,4.353,5.62,1111122 
DISL,ioos:station:DISL:KATA:1,2017-08-06T11:30:00Z,30.2583,-88.2131,4.383,5.49,1111122 
DISL,ioos:station:DISL:KATA:1,2017-08-06T12:00:00Z,30.2583,-88.2131,4.404,5.67,1111122 
DISL,ioos:station:DISL:KATA:1,2017-08-06T12:30:00Z,30.2583,-88.2131,4.438,5.56,1111122 
DISL,ioos:station:DISL:KATA:1,2017-08-06T13:00:00Z,30.2583,-88.2131,4.454,5.78,1111122 
DISL,ioos:station:DISL:KATA:1,2017-08-06T13:30:00Z,30.2583,-88.2131,4.473,5.74,1111122 
DISL,ioos:station:DISL:KATA:1,2017-08-06T14:00:00Z,30.2583,-88.2131,4.48,5.66,1111122 
DISL,ioos:station:DISL:KATA:1,2017-08-06T14:30:00Z,30.2583,-88.2131,4.476,5.51,1111122 
DISL,ioos:station:DISL:KATA:1,2017-08-06T15:00:00Z,30.2583,-88.2131,4.468,5.7,1111122 
DISL,ioos:station:DISL:KATA:1,2017-08-06T15:30:00Z,30.2583,-88.2131,4.458,5.67,1111122 